Time,TemperatureF,DewpointF,PressureIn,WindDirection,WindDirectionDegrees,WindSpeedMPH,WindSpeedGustMPH,Humidity,HourlyPrecipIn,Conditions,Clouds,dailyrainin,SoftwareType,DateUTC
2013-01-20 00:01:00,41.1,9.7,30.18,SSW,200,1.0,6.0,27,0.00,,CLR,0.00,VWS V14.01,2013-01-20 08:01:00,
2013-01-20 00:11:00,42.5,10.1,30.18,SSW,200,3.0,6.0,26,0.00,,CLR,0.00,VWS V14.01,2013-01-20 08:11:00,
2013-01-20 00:21:00,42.0,10.5,30.17,SSW,200,4.0,5.0,27,0.00,,CLR,0.00,VWS V14.01,2013-01-20 08:21:00,
2013-01-20 00:31:00,41.4,10.8,30.17,SSW,200,2.0,4.0,28,0.00,,CLR,0.00,VWS V14.01,2013-01-20 08:31:00,
2013-01-20 00:41:00,42.9,10.4,30.18,SSW,200,5.0,5.0,26,0.00,,CLR,0.00,VWS V14.01,2013-01-20 08:41:00,
2013-01-20 00:51:00,43.7,10.2,30.18,SW,214,4.0,7.0,25,0.00,,CLR,0.00,VWS V14.01,2013-01-20 08:51:00,
2013-01-20 01:01:00,44.0,10.4,30.17,SSW,213,3.0,7.0,25,0.00,,CLR,0.00,VWS V14.01,2013-01-20 09:01:00,
2013-01-20 01:11:00,44.9,11.2,30.18,SSW,202,5.0,8.0,25,0.00,,CLR,0.00,VWS V14.01,2013-01-20 09:11:00,
2013-01-20 01:21:00,44.8,11.1,30.18,SSW,209,5.0,8.0,25,0.00,,CLR,0.00,VWS V14.01,2013-01-20 09:21:00,
2013-01-20 01:31:00,44.3,10.7,30.18,SSW,203,4.0,6.0,25,0.00,,CLR,0.00,VWS V14.01,2013-01-20 09:31:00,
2013-01-20 01:41:00,44.2,10.6,30.18,SSW,213,4.0,7.0,25,0.00,,CLR,0.00,VWS V14.01,2013-01-20 09:41:00,
2013-01-20 01:51:00,44.7,11.1,30.18,SSW,213,5.0,8.0,25,0.00,,CLR,0.00,VWS V14.01,2013-01-20 09:51:00,
2013-01-20 02:01:00,44.9,11.2,30.18,SW,215,4.0,8.0,25,0.00,,CLR,0.00,VWS V14.01,2013-01-20 10:01:00,
2013-01-20 02:11:00,44.0,10.4,30.18,SSW,212,6.0,7.0,25,0.00,,CLR,0.00,VWS V14.01,2013-01-20 10:11:00,
2013-01-20 02:21:00,43.4,11.7,30.18,SSW,212,2.0,6.0,27,0.00,,CLR,0.00,VWS V14.01,2013-01-20 10:21:00,
2013-01-20 02:31:00,42.9,11.2,30.18,SSW,211,2.0,4.0,27,0.00,,CLR,0.00,VWS V14.01,2013-01-20 10:31:00,
2013-01-20 02:41:00,42.4,10.8,30.18,SSW,211,3.0,4.0,27,0.00,,CLR,0.00,VWS V14.01,2013-01-20 10:41:00,
2013-01-20 02:51:00,42.2,10.6,30.18,SSW,212,3.0,5.0,27,0.00,,CLR,0.00,VWS V14.01,2013-01-20 10:51:00,
2013-01-20 03:01:00,41.4,10.8,30.18,SSW,212,4.0,4.0,28,0.00,,CLR,0.00,VWS V14.01,2013-01-20 11:01:00,
2013-01-20 03:11:00,40.1,10.4,30.17,SSW,212,3.0,4.0,29,0.00,,CLR,0.00,VWS V14.01,2013-01-20 11:11:00,
2013-01-20 03:21:00,40.4,9.9,30.17,SSW,211,3.0,5.0,28,0.00,,CLR,0.00,VWS V14.01,2013-01-20 11:21:00,
2013-01-20 03:31:00,40.7,10.1,30.17,SSW,212,4.0,5.0,28,0.00,,CLR,0.00,VWS V14.01,2013-01-20 11:31:00,
2013-01-20 03:41:00,40.8,10.2,30.17,SSW,211,3.0,6.0,28,0.00,,CLR,0.00,VWS V14.01,2013-01-20 11:41:00,
2013-01-20 03:51:00,40.4,10.7,30.17,SW,215,5.0,5.0,29,0.00,,CLR,0.00,VWS V14.01,2013-01-20 11:51:00,
2013-01-20 04:01:00,41.2,10.6,30.17,SW,215,5.0,6.0,28,0.00,,CLR,0.00,VWS V14.01,2013-01-20 12:01:00,
2013-01-20 04:11:00,41.1,10.5,30.17,SW,215,5.0,6.0,28,0.00,,CLR,0.00,VWS V14.01,2013-01-20 12:11:00,
2013-01-20 04:21:00,41.4,9.9,30.17,SW,214,3.0,6.0,27,0.00,,CLR,0.00,VWS V14.01,2013-01-20 12:21:00,
2013-01-20 04:31:00,41.2,10.6,30.17,SW,214,4.0,5.0,28,0.00,,CLR,0.00,VWS V14.01,2013-01-20 12:31:00,
2013-01-20 04:41:00,40.4,9.9,30.17,SSW,212,4.0,5.0,28,0.00,,CLR,0.00,VWS V14.01,2013-01-20 12:41:00,
2013-01-20 04:51:00,40.6,10.1,30.16,SSW,207,5.0,6.0,28,0.00,,CLR,0.00,VWS V14.01,2013-01-20 12:51:00,
2013-01-20 05:01:00,41.4,10.8,30.17,SSW,211,5.0,6.0,28,0.00,,CLR,0.00,VWS V14.01,2013-01-20 13:01:00,
2013-01-20 05:11:00,41.6,10.1,30.17,SSW,211,2.0,6.0,27,0.00,,CLR,0.00,VWS V14.01,2013-01-20 13:11:00,
2013-01-20 05:21:00,40.9,11.1,30.17,SSW,211,4.0,4.0,29,0.00,,CLR,0.00,VWS V14.01,2013-01-20 13:21:00,
2013-01-20 05:31:00,39.4,9.8,30.17,SSW,205,3.0,6.0,29,0.00,,CLR,0.00,VWS V14.01,2013-01-20 13:31:00,
2013-01-20 05:41:00,38.6,9.9,30.17,SSW,205,2.0,4.0,30,0.00,,CLR,0.00,VWS V14.01,2013-01-20 13:41:00,
2013-01-20 05:51:00,37.6,10.4,30.17,SSW,205,1.0,5.0,32,0.00,,CLR,0.00,VWS V14.01,2013-01-20 13:51:00,
2013-01-20 06:01:00,37.3,9.4,30.17,SSW,205,3.0,4.0,31,0.00,,CLR,0.00,VWS V14.01,2013-01-20 14:01:00,
2013-01-20 06:11:00,37.1,10.0,30.17,SSW,205,2.0,5.0,32,0.00,,CLR,0.00,VWS V14.01,2013-01-20 14:11:00,
2013-01-20 06:21:00,38.3,10.3,30.17,SSW,204,3.0,7.0,31,0.00,,CLR,0.00,VWS V14.01,2013-01-20 14:21:00,
2013-01-20 06:31:00,40.1,10.4,30.17,SSW,204,2.0,5.0,29,0.00,,CLR,0.00,VWS V14.01,2013-01-20 14:31:00,
2013-01-20 06:41:00,41.1,10.5,30.17,SSW,203,3.0,5.0,28,0.00,,CLR,0.00,VWS V14.01,2013-01-20 14:41:00,
2013-01-20 06:51:00,40.4,10.7,30.18,SSW,204,3.0,4.0,29,0.00,,CLR,0.00,VWS V14.01,2013-01-20 14:51:00,
2013-01-20 07:01:00,40.1,10.4,30.18,SSW,203,2.0,4.0,29,0.00,,CLR,0.00,VWS V14.01,2013-01-20 15:01:00,
2013-01-20 07:11:00,39.1,10.3,30.18,SSW,204,4.0,5.0,30,0.00,,CLR,0.00,VWS V14.01,2013-01-20 15:11:00,
2013-01-20 07:21:00,38.8,10.8,30.18,SSW,203,2.0,5.0,31,0.00,,CLR,0.00,VWS V14.01,2013-01-20 15:21:00,
2013-01-20 07:31:00,39.2,11.8,30.18,SSW,194,2.0,6.0,32,0.00,,CLR,0.00,VWS V14.01,2013-01-20 15:31:00,
2013-01-20 07:41:00,40.2,11.3,30.18,SSW,194,5.0,6.0,30,0.00,,CLR,0.00,VWS V14.01,2013-01-20 15:41:00,
2013-01-20 07:51:00,42.2,12.2,30.18,SSW,212,5.0,8.0,29,0.00,,CLR,0.00,VWS V14.01,2013-01-20 15:51:00,
2013-01-20 08:01:00,43.1,12.2,30.18,SSW,209,5.0,7.0,28,0.00,,CLR,0.00,VWS V14.01,2013-01-20 16:01:00,
2013-01-20 08:11:00,44.1,12.3,30.18,SSW,208,6.0,7.0,27,0.00,,CLR,0.00,VWS V14.01,2013-01-20 16:11:00,
2013-01-20 08:21:00,45.6,12.7,30.18,SSW,207,9.0,9.0,26,0.00,,CLR,0.00,VWS V14.01,2013-01-20 16:21:00,
2013-01-20 08:31:00,47.0,13.0,30.19,SW,215,6.0,9.0,25,0.00,,CLR,0.00,VWS V14.01,2013-01-20 16:31:00,
2013-01-20 08:41:00,48.1,13.0,30.19,SW,216,4.0,7.0,24,0.00,,CLR,0.00,VWS V14.01,2013-01-20 16:41:00,
2013-01-20 08:51:00,49.0,12.8,30.19,SSW,213,3.0,7.0,23,0.00,,CLR,0.00,VWS V14.01,2013-01-20 16:51:00,
2013-01-20 09:01:00,49.8,13.5,30.20,SSW,213,0.0,5.0,23,0.00,,CLR,0.00,VWS V14.01,2013-01-20 17:01:00,
2013-01-20 09:11:00,50.1,13.8,30.20,SE,146,5.0,8.0,23,0.00,,CLR,0.00,VWS V14.01,2013-01-20 17:11:00,
2013-01-20 09:21:00,49.8,13.5,30.20,South,181,2.0,9.0,23,0.00,,CLR,0.00,VWS V14.01,2013-01-20 17:21:00,
2013-01-20 09:31:00,50.4,14.0,30.20,SSE,150,5.0,8.0,23,0.00,,CLR,0.00,VWS V14.01,2013-01-20 17:31:00,
2013-01-20 09:41:00,50.5,14.1,30.20,SSE,151,4.0,8.0,23,0.00,,CLR,0.00,VWS V14.01,2013-01-20 17:41:00,
2013-01-20 09:51:00,51.5,13.9,30.20,SE,141,6.0,8.0,22,0.00,,CLR,0.00,VWS V14.01,2013-01-20 17:51:00,
2013-01-20 10:01:00,52.1,14.4,30.20,South,173,4.0,8.0,22,0.00,,CLR,0.00,VWS V14.01,2013-01-20 18:01:00,
2013-01-20 10:11:00,52.7,14.9,30.20,SSW,192,2.0,6.0,22,0.00,,CLR,0.00,VWS V14.01,2013-01-20 18:11:00,
2013-01-20 10:21:00,53.2,13.2,30.19,South,189,0.0,5.0,20,0.00,,CLR,0.00,VWS V14.01,2013-01-20 18:21:00,
2013-01-20 10:31:00,55.0,13.5,30.19,SE,126,1.0,5.0,19,0.00,,CLR,0.00,VWS V14.01,2013-01-20 18:31:00,
2013-01-20 10:41:00,56.1,14.4,30.19,NE,46,4.0,6.0,19,0.00,,CLR,0.00,VWS V14.01,2013-01-20 18:41:00,
2013-01-20 10:51:00,55.8,14.2,30.18,NE,40,5.0,8.0,19,0.00,,CLR,0.00,VWS V14.01,2013-01-20 18:51:00,
2013-01-20 11:01:00,55.4,15.0,30.18,NE,46,5.0,6.0,20,0.00,,CLR,0.00,VWS V14.01,2013-01-20 19:01:00,
2013-01-20 11:11:00,55.1,14.8,30.17,NE,34,3.0,7.0,20,0.00,,CLR,0.00,VWS V14.01,2013-01-20 19:11:00,
2013-01-20 11:21:00,55.4,15.0,30.17,NE,38,2.0,8.0,20,0.00,,CLR,0.00,VWS V14.01,2013-01-20 19:21:00,
2013-01-20 11:31:00,55.5,15.1,30.16,NE,45,3.0,8.0,20,0.00,,CLR,0.00,VWS V14.01,2013-01-20 19:31:00,
2013-01-20 11:41:00,56.3,15.8,30.16,NNE,29,7.0,8.0,20,0.00,,CLR,0.00,VWS V14.01,2013-01-20 19:41:00,
2013-01-20 11:51:00,56.1,15.6,30.15,North,350,2.0,6.0,20,0.00,,CLR,0.00,VWS V14.01,2013-01-20 19:51:00,
2013-01-20 12:01:00,56.8,15.0,30.14,NE,37,0.0,6.0,19,0.00,,CLR,0.00,VWS V14.01,2013-01-20 20:01:00,
2013-01-20 12:11:00,57.9,15.9,30.14,NE,35,2.0,6.0,19,0.00,,CLR,0.00,VWS V14.01,2013-01-20 20:11:00,
2013-01-20 12:21:00,58.3,16.2,30.13,NE,44,2.0,7.0,19,0.00,,CLR,0.00,VWS V14.01,2013-01-20 20:21:00,
2013-01-20 12:31:00,58.4,16.3,30.13,NE,35,4.0,6.0,19,0.00,,CLR,0.00,VWS V14.01,2013-01-20 20:31:00,
2013-01-20 12:41:00,58.5,16.4,30.12,NE,42,3.0,5.0,19,0.00,,CLR,0.00,VWS V14.01,2013-01-20 20:41:00,
2013-01-20 12:51:00,59.6,16.1,30.12,NNW,335,4.0,5.0,18,0.00,,CLR,0.00,VWS V14.01,2013-01-20 20:51:00,
2013-01-20 13:01:00,60.0,15.1,30.11,NNE,18,4.0,6.0,17,0.00,,CLR,0.00,VWS V14.01,2013-01-20 21:01:00,
2013-01-20 13:11:00,60.1,16.5,30.11,NNE,22,4.0,7.0,18,0.00,,CLR,0.00,VWS V14.01,2013-01-20 21:11:00,
2013-01-20 13:21:00,60.0,15.1,30.11,NNW,329,2.0,7.0,17,0.00,,CLR,0.00,VWS V14.01,2013-01-20 21:21:00,
2013-01-20 13:31:00,60.3,16.6,30.10,NW,326,0.0,5.0,18,0.00,,CLR,0.00,VWS V14.01,2013-01-20 21:31:00,
2013-01-20 13:41:00,61.7,17.8,30.09,WNW,290,3.0,4.0,18,0.00,,CLR,0.00,VWS V14.01,2013-01-20 21:41:00,
2013-01-20 13:51:00,61.6,17.7,30.09,NW,310,2.0,7.0,18,0.00,,CLR,0.00,VWS V14.01,2013-01-20 21:51:00,
2013-01-20 14:01:00,62.2,18.2,30.09,NW,304,4.0,5.0,18,0.00,,CLR,0.00,VWS V14.01,2013-01-20 22:01:00,
2013-01-20 14:11:00,62.2,18.2,30.08,NW,310,2.0,5.0,18,0.00,,CLR,0.00,VWS V14.01,2013-01-20 22:11:00,
2013-01-20 14:21:00,63.4,17.9,30.08,NW,306,1.0,4.0,17,0.00,,CLR,0.00,VWS V14.01,2013-01-20 22:21:00,
2013-01-20 14:31:00,63.1,16.2,30.08,WSW,256,2.0,4.0,16,0.00,,CLR,0.00,VWS V14.01,2013-01-20 22:31:00,
2013-01-20 14:41:00,62.6,17.2,30.07,NNW,348,2.0,6.0,17,0.00,,CLR,0.00,VWS V14.01,2013-01-20 22:41:00,
2013-01-20 14:51:00,62.2,16.9,30.07,NE,53,2.0,7.0,17,0.00,,CLR,0.00,VWS V14.01,2013-01-20 22:51:00,
2013-01-20 15:01:00,62.0,16.7,30.07,NE,39,3.0,5.0,17,0.00,,CLR,0.00,VWS V14.01,2013-01-20 23:01:00,
2013-01-20 15:11:00,62.1,16.8,30.07,NNE,15,0.0,5.0,17,0.00,,CLR,0.00,VWS V14.01,2013-01-20 23:11:00,
2013-01-20 15:21:00,62.4,15.6,30.07,NNW,346,3.0,5.0,16,0.00,,CLR,0.00,VWS V14.01,2013-01-20 23:21:00,
2013-01-20 15:31:00,62.6,17.2,30.07,NW,325,2.0,5.0,17,0.00,,CLR,0.00,VWS V14.01,2013-01-20 23:31:00,
2013-01-20 15:41:00,62.3,15.6,30.07,NW,322,3.0,5.0,16,0.00,,CLR,0.00,VWS V14.01,2013-01-20 23:41:00,
2013-01-20 15:51:00,62.3,15.6,30.07,NW,322,0.0,4.0,16,0.00,,CLR,0.00,VWS V14.01,2013-01-20 23:51:00,
2013-01-20 16:01:00,62.8,16.0,30.07,NW,322,0.0,2.0,16,0.00,,CLR,0.00,VWS V14.01,2013-01-21 00:01:00,
2013-01-20 16:11:00,63.4,16.5,30.07,NW,322,0.0,0.0,16,0.00,,CLR,0.00,VWS V14.01,2013-01-21 00:11:00,
2013-01-20 16:21:00,63.2,16.3,30.07,NW,322,0.0,1.0,16,0.00,,CLR,0.00,VWS V14.01,2013-01-21 00:21:00,
2013-01-20 16:31:00,62.2,16.9,30.07,NW,322,0.0,0.0,17,0.00,,CLR,0.00,VWS V14.01,2013-01-21 00:31:00,
2013-01-20 16:41:00,60.6,16.9,30.07,NW,322,1.0,2.0,18,0.00,,CLR,0.00,VWS V14.01,2013-01-21 00:41:00,
2013-01-20 16:51:00,57.3,16.6,30.08,NW,322,0.0,2.0,20,0.00,,CLR,0.00,VWS V14.01,2013-01-21 00:51:00,
2013-01-20 17:01:00,55.6,16.3,30.08,NW,322,3.0,3.0,21,0.00,,CLR,0.00,VWS V14.01,2013-01-21 01:01:00,
2013-01-20 17:11:00,53.8,15.9,30.08,NW,322,1.0,3.0,22,0.00,,CLR,0.00,VWS V14.01,2013-01-21 01:11:00,
2013-01-20 17:21:00,52.5,16.8,30.08,NW,322,2.0,2.0,24,0.00,,CLR,0.00,VWS V14.01,2013-01-21 01:21:00,
2013-01-20 17:31:00,51.2,16.6,30.08,NW,321,2.0,4.0,25,0.00,,CLR,0.00,VWS V14.01,2013-01-21 01:31:00,
2013-01-20 17:41:00,50.3,15.8,30.08,West,262,4.0,5.0,25,0.00,,CLR,0.00,VWS V14.01,2013-01-21 01:41:00,
2013-01-20 17:51:00,50.9,15.4,30.08,SW,219,5.0,6.0,24,0.00,,CLR,0.00,VWS V14.01,2013-01-21 01:51:00,
2013-01-20 18:01:00,50.4,15.0,30.08,SSW,209,4.0,6.0,24,0.00,,CLR,0.00,VWS V14.01,2013-01-21 02:01:00,
2013-01-20 18:11:00,50.1,14.7,30.08,SSW,209,4.0,5.0,24,0.00,,CLR,0.00,VWS V14.01,2013-01-21 02:11:00,
2013-01-20 18:21:00,49.4,15.1,30.08,SSW,209,4.0,4.0,25,0.00,,CLR,0.00,VWS V14.01,2013-01-21 02:21:00,
2013-01-20 18:31:00,47.6,14.4,30.08,SSW,194,5.0,6.0,26,0.00,,CLR,0.00,VWS V14.01,2013-01-21 02:31:00,
2013-01-20 18:41:00,47.7,14.5,30.08,SSW,194,4.0,6.0,26,0.00,,CLR,0.00,VWS V14.01,2013-01-21 02:41:00,
2013-01-20 18:51:00,47.4,14.2,30.08,SSW,195,4.0,6.0,26,0.00,,CLR,0.00,VWS V14.01,2013-01-21 02:51:00,
2013-01-20 19:01:00,47.5,13.4,30.08,SSW,205,4.0,6.0,25,0.00,,CLR,0.00,VWS V14.01,2013-01-21 03:01:00,
2013-01-20 19:11:00,47.6,14.4,30.08,SSW,204,4.0,7.0,26,0.00,,CLR,0.00,VWS V14.01,2013-01-21 03:11:00,
2013-01-20 19:21:00,47.4,14.2,30.08,SSW,199,4.0,6.0,26,0.00,,CLR,0.00,VWS V14.01,2013-01-21 03:21:00,
2013-01-20 19:31:00,47.9,14.7,30.08,SSW,205,5.0,6.0,26,0.00,,CLR,0.00,VWS V14.01,2013-01-21 03:31:00,
2013-01-20 19:41:00,47.4,13.4,30.09,SSW,203,3.0,5.0,25,0.00,,CLR,0.00,VWS V14.01,2013-01-21 03:41:00,
2013-01-20 19:51:00,47.2,14.1,30.09,SSW,203,4.0,4.0,26,0.00,,CLR,0.00,VWS V14.01,2013-01-21 03:51:00,
2013-01-20 20:01:00,46.8,13.7,30.10,SSW,203,4.0,6.0,26,0.00,,CLR,0.00,VWS V14.01,2013-01-21 04:01:00,
2013-01-20 20:11:00,46.6,13.6,30.10,SSW,203,3.0,5.0,26,0.00,,CLR,0.00,VWS V14.01,2013-01-21 04:11:00,
2013-01-20 20:21:00,45.8,13.7,30.10,SSW,203,3.0,4.0,27,0.00,,CLR,0.00,VWS V14.01,2013-01-21 04:21:00,
2013-01-20 20:31:00,45.0,13.1,30.10,SSW,203,3.0,4.0,27,0.00,,CLR,0.00,VWS V14.01,2013-01-21 04:31:00,
2013-01-20 20:41:00,44.0,13.0,30.11,SSW,203,3.0,5.0,28,0.00,,CLR,0.00,VWS V14.01,2013-01-21 04:41:00,
2013-01-20 20:51:00,43.4,13.3,30.11,SSW,204,4.0,5.0,29,0.00,,CLR,0.00,VWS V14.01,2013-01-21 04:51:00,
2013-01-20 21:11:00,43.9,13.7,30.11,SSW,204,3.0,4.0,29,0.00,,CLR,0.00,VWS V14.01,2013-01-21 05:11:00,
2013-01-20 21:21:00,44.5,15.0,30.12,SSW,204,3.0,3.0,30,0.00,,CLR,0.00,VWS V14.01,2013-01-21 05:21:00,
2013-01-20 21:31:00,43.7,13.5,30.12,SSW,203,3.0,5.0,29,0.00,,CLR,0.00,VWS V14.01,2013-01-21 05:31:00,
2013-01-20 21:41:00,43.5,12.6,30.12,SSW,204,3.0,4.0,28,0.00,,CLR,0.00,VWS V14.01,2013-01-21 05:41:00,
2013-01-20 21:51:00,43.5,12.6,30.12,SSW,203,4.0,5.0,28,0.00,,CLR,0.00,VWS V14.01,2013-01-21 05:51:00,
2013-01-20 22:01:00,43.5,11.8,30.12,SSW,204,4.0,6.0,27,0.00,,CLR,0.00,VWS V14.01,2013-01-21 06:01:00,
2013-01-20 22:11:00,42.7,11.9,30.12,SSW,195,4.0,6.0,28,0.00,,CLR,0.00,VWS V14.01,2013-01-21 06:11:00,
2013-01-20 22:21:00,41.9,11.2,30.12,SSW,211,4.0,6.0,28,0.00,,CLR,0.00,VWS V14.01,2013-01-21 06:21:00,
2013-01-20 22:31:00,41.6,11.7,30.12,SSW,211,4.0,5.0,29,0.00,,CLR,0.00,VWS V14.01,2013-01-21 06:31:00,
2013-01-20 22:41:00,41.8,11.9,30.12,SSW,202,4.0,5.0,29,0.00,,CLR,0.00,VWS V14.01,2013-01-21 06:41:00,
2013-01-20 22:51:00,41.3,11.5,30.12,SSW,202,4.0,6.0,29,0.00,,CLR,0.00,VWS V14.01,2013-01-21 06:51:00,
2013-01-20 23:01:00,41.1,11.3,30.12,SSW,201,4.0,6.0,29,0.00,,CLR,0.00,VWS V14.01,2013-01-21 07:01:00,
2013-01-20 23:11:00,41.0,11.2,30.12,SSW,202,3.0,6.0,29,0.00,,CLR,0.00,VWS V14.01,2013-01-21 07:11:00,
2013-01-20 23:21:00,43.0,11.3,30.12,South,184,3.0,6.0,27,0.00,,CLR,0.00,VWS V14.01,2013-01-21 07:21:00,
2013-01-20 23:31:00,42.4,10.8,30.13,South,184,2.0,6.0,27,0.00,,CLR,0.00,VWS V14.01,2013-01-21 07:31:00,
2013-01-20 23:41:00,43.2,11.5,30.12,South,184,2.0,5.0,27,0.00,,CLR,0.00,VWS V14.01,2013-01-21 07:41:00,
2013-01-20 23:51:00,43.1,12.2,30.13,South,184,3.0,4.0,28,0.00,,CLR,0.00,VWS V14.01,2013-01-21 07:51:00,